Location: Franzen
(48.6167°N, 15.3833°E)
Time: 10:58:33
(UTC+00:00)

Cosmos 1812 Rocket - Pass Details

Date: 22 April 2021
Orbit: 605 x 632 km, 82.5° (Epoch: 16 May)

Event Time Altitude Azimuth Distance (km) Brightness Sun altitude
Rises 18:38:35 0° 163° (SSE) 2,899 6.6 -6.6°
Reaches altitude 10° 18:40:58 10° 154° (SSE) 2,001 5.7 -7.0°
Maximum altitude 18:44:56 33° 90° (E) 1,063 4.3 -7.5°
Drops below altitude 10° 18:48:57 10° 27° (NNE) 2,024 6.2 -8.1°
Sets 18:51:21 0° 18° (NNE) 2,939 7.2 -8.5°
